Weather History for KROG - October, 2012

Change the Weather History Date:

Sunday, October 14, 2012

  Actual Average Record
Temperature  
Mean Temperature 62 °F -  
Max Temperature 70 °F 67 °F 80 °F (1999)
Min Temperature 54 °F 46 °F 32 °F (2002)
Degree Days  
Heating Degree Days 2    
Growing Degree Days 12 (Base 50)    
Moisture  
Dew Point 55 °F    
Average Humidity 76    
Maximum Humidity 94    
Minimum Humidity 47    
Precipitation  
Precipitation 0.02 in - - ()
Sea Level Pressure  
Sea Level Pressure 29.88 in    
Wind  
Wind Speed 13 mph (SW)    
Max Wind Speed 17 mph    
Max Gust Speed 34 mph    
Visibility 10 miles    
Events Rain    
Averages and records for this station are not official NWS values.
T = Trace of Precipitation, MM = Missing Value Source: NWS Daily Summary

Daily Weather History Graph

Daily Weather History Graph

Search for Another Location

Airport or City:

Trip Planner

Search our weather history database for the weather conditions in past years. The results will help you decide how hot, cold, wet, or windy it might be!

Date:

Astronomy

Oct. 14, 2012 Rise Set
Actual Time 7:23 AM CDT 6:40 PM CDT
Civil Twilight 6:57 AM CDT 7:06 PM CDT
Nautical Twilight 6:27 AM CDT 7:36 PM CDT
Astronomical Twilight 5:57 AM CDT 8:06 PM CDT
Moon 6:23 AM CDT (10/14) 6:01 PM CDT (10/14)
Length of Visible Light 12h 09m
Length of Day
11h 17m
Waning Crescent, 1% of the Moon is Illuminated
Oct 14
Waning Crescent
Oct 15
New
Oct 21
First Quarter
Oct 29
Full
Nov 6
Last Quarter

Hourly Weather History & Observations

Time (CDT) Temp. Dew Point Humidity Pressure Visibility Wind Dir Wind Speed Gust Speed Precip Events Conditions
12:39 AM 64.4 °F 62.6 °F 94% 29.78 in 10.0 mi South 16.1 mph 21.9 mph 0.02 in Rain Light Rain
12:45 AM 64.4 °F 62.6 °F 94% 29.76 in 10.0 mi SSE 12.7 mph - 0.02 in Rain Light Rain
12:57 AM 64.0 °F 62.1 °F 93% 29.74 in 10.0 mi South 13.8 mph - 0.02 in   Overcast
1:57 AM 64.0 °F 62.1 °F 93% 29.74 in 10.0 mi SSW 17.3 mph 23.0 mph N/A   Overcast
2:57 AM 64.0 °F 62.1 °F 93% 29.72 in 10.0 mi South 12.7 mph - N/A   Overcast
3:23 AM 64.4 °F 62.6 °F 94% 29.75 in 10.0 mi South 17.3 mph - N/A   Mostly Cloudy
3:57 AM 64.0 °F 61.0 °F 90% 29.70 in 10.0 mi SSW 10.4 mph - N/A   Overcast
4:18 AM 62.6 °F 60.8 °F 94% 29.74 in 10.0 mi SSW 13.8 mph - N/A   Scattered Clouds
4:57 AM 63.0 °F 60.1 °F 90% 29.73 in 10.0 mi SW 15.0 mph 25.3 mph N/A   Mostly Cloudy
5:57 AM 62.6 °F 59.0 °F 88% 29.78 in 10.0 mi SW 16.1 mph 20.7 mph N/A   Scattered Clouds
5:59 AM 62.1 °F 59.0 °F 90% 29.75 in 10.0 mi SW 15.0 mph - N/A   Scattered Clouds
6:57 AM 60.1 °F 57.0 °F 90% 29.77 in 10.0 mi SW 16.1 mph - N/A   Clear
7:57 AM 60.1 °F 55.0 °F 83% 29.82 in 10.0 mi WSW 15.0 mph 21.9 mph N/A   Clear
8:57 AM 60.1 °F 53.1 °F 78% 29.87 in 10.0 mi WSW 13.8 mph 23.0 mph N/A   Overcast
9:35 AM 60.8 °F 53.6 °F 77% 29.91 in 10.0 mi WSW 13.8 mph 23.0 mph N/A   Scattered Clouds
9:57 AM 62.1 °F 53.1 °F 72% 29.90 in 10.0 mi WSW 10.4 mph - N/A   Mostly Cloudy
10:49 AM 64.4 °F 53.6 °F 68% 29.94 in 10.0 mi WSW 12.7 mph - N/A   Mostly Cloudy
10:57 AM 64.9 °F 54.0 °F 68% 29.93 in 10.0 mi West 12.7 mph 19.6 mph N/A   Mostly Cloudy
11:08 AM 64.4 °F 53.6 °F 68% 29.95 in 10.0 mi WSW 11.5 mph 21.9 mph N/A   Mostly Cloudy
11:57 AM 64.9 °F 54.0 °F 68% 29.96 in 10.0 mi West 12.7 mph 21.9 mph N/A   Mostly Cloudy
12:57 PM 66.9 °F 55.0 °F 66% 29.97 in 10.0 mi West 11.5 mph 21.9 mph N/A   Mostly Cloudy
2:57 PM 70.0 °F 53.1 °F 55% 29.96 in 10.0 mi WSW 17.3 mph 34.5 mph N/A   Mostly Cloudy
3:57 PM 70.0 °F 50.0 °F 49% 29.98 in 10.0 mi West 12.7 mph 21.9 mph N/A   Partly Cloudy
4:57 PM 69.1 °F 48.0 °F 47% 29.98 in 10.0 mi WNW 10.4 mph - N/A   Clear
5:57 PM 68.0 °F 46.9 °F 47% 30.00 in 10.0 mi WNW 10.4 mph - N/A   Clear
6:57 PM 63.0 °F 46.9 °F 56% 30.02 in 10.0 mi West 5.8 mph - N/A   Clear
7:57 PM 60.1 °F 46.9 °F 62% 30.03 in 10.0 mi West 3.5 mph - N/A   Clear
9:57 PM 57.0 °F 46.9 °F 69% 30.06 in 10.0 mi West 3.5 mph - N/A   Clear
10:57 PM 55.9 °F 46.0 °F 69% 30.07 in 10.0 mi West 3.5 mph - N/A   Clear
11:57 PM 54.0 °F 46.9 °F 77% 30.07 in 10.0 mi WSW 3.5 mph - N/A   Clear